Ana Sayfa
METAR-TAF:

METAR-TAF

Havaalanları :

Nueces County Airport

Robstown, Teksas, Amerika Birleşik Devletleri

Enlem: 27-46-42N, Boylam: 097-41-25W, yükseklik: 24 m

Güncel hava durumu gözlemi

Rapor saat 02:35 UTC de 28 dakika önce yapıldı.
Rüzgar güneydoğudan 5 kt
Sıcaklık 17°C
Nem 88%
Basınç 1014 hPa
Görüş mesafesi: 16.1 km
Açık gökyüzü

METAR: KRBO 190235Z AUTO 14005KT 10SM CLR 17/15 A2994 RMK AO2 T01650151

Saat: 21:03 (03:03 UTC)


TAF: eksik

4.000'den fazla havaalanı için hava durumu gözlemleri ve tahminleri (METAR ve TAF raporları).

Kullanılabilir istasyonlar harita üzerinde sarı ve kırmızı noktalarla gösterilir.

İstasyonun adını görmek için fareyi noktanın üzerinde gezdirin.

Sonrasında hava gözlem ve tahminlerini görmek için tıklayın.

Haritayı değiştirmek için: yaklaştırmak için siyah artı işaretli yeşil düğmeye ve uzaklaştırmak için de eksi işaretli düğmeye hızla tıklayın; bitişik haritalar için yeşil okları kullanın.


METAR-TAF: